Weather History for Roanoke, VA

Change the Weather History Date:

Thursday, March 7, 2013

  Actual Average Record
Temperature  
Mean Temperature 40 °F 44 °F  
Max Temperature 44 °F 55 °F 83 °F (2009)
Min Temperature 36 °F 34 °F 14 °F (1960)
Degree Days  
Heating Degree Days 25 21  
Month to date heating degree days 196 150  
Since 1 July heating degree days 3138 3355  
Cooling Degree Days 0 0  
Month to date cooling degree days 0 0  
Year to date cooling degree days 0 0  
Moisture  
Dew Point 25 °F    
Average Humidity 55    
Maximum Humidity 64    
Minimum Humidity 45    
Precipitation  
Precipitation 0.00 in 0.11 in 2.11 in (1967)
Month to date precipitation 0.93 0.70  
Year to date precipitation 10.22 6.51  
Snow  
Snow 0.00 in - - ()
Month to date snowfall 2.5  
Since 1 July snowfall 11.8  
Snow Depth 0.00 in    
Sea Level Pressure  
Sea Level Pressure 30.20 in    
Wind  
Wind Speed 13 mph (NW)    
Max Wind Speed 24 mph    
Max Gust Speed 33 mph    
Visibility 10 miles    
Events      
T = Trace of Precipitation, MM = Missing Value Source: NWS Daily Summary

Daily Weather History Graph

Daily Weather History Graph

Search for Another Location

Airport:

Trip Planner

Search our weather history database for the weather conditions in past years. The results will help you decide how hot, cold, wet, or windy it might be!

Date:

Astronomy

Mar. 07, 2013 Rise Set
Actual Time 6:42 AM EST 6:19 PM EST
Civil Twilight 6:16 AM EST 6:45 PM EST
Nautical Twilight 5:46 AM EST 7:16 PM EST
Astronomical Twilight 5:15 AM EST 7:46 PM EST
Moon 3:36 AM EST (3/7) 2:10 PM EST (3/7)
Length of Visible Light 12h 29m
Length of Day
11h 37m
Waning Crescent, 20% of the Moon is Illuminated
Mar 7
Waning Crescent
Mar 11
New
Mar 19
First Quarter
Mar 27
Full
Apr 3
Last Quarter

Hourly Weather History & Observations

Time (EST) Temp. Windchill Dew Point Humidity Pressure Visibility Wind Dir Wind Speed Gust Speed Precip Events Conditions
12:54 AM 37.9 °F 30.5 °F 26.1 °F 62% 30.11 in 10.0 mi NNW 11.5 mph 20.7 mph N/A   Overcast
1:54 AM 37.0 °F 30.4 °F 27.0 °F 67% 30.12 in 10.0 mi NNW 9.2 mph - N/A   Overcast
2:54 AM 37.9 °F 29.2 °F 27.0 °F 65% 30.12 in 10.0 mi NW 15.0 mph 20.7 mph N/A   Overcast
3:54 AM 37.0 °F 28.5 °F 27.0 °F 67% 30.12 in 10.0 mi NNW 13.8 mph 20.7 mph N/A   Overcast
4:54 AM 37.0 °F 29.3 °F 27.0 °F 67% 30.14 in 10.0 mi NW 11.5 mph - N/A   Overcast
5:54 AM 37.0 °F 28.9 °F 26.1 °F 65% 30.16 in 10.0 mi WNW 12.7 mph - N/A   Overcast
6:54 AM 37.0 °F 28.1 °F 26.1 °F 65% 30.18 in 10.0 mi NW 15.0 mph 20.7 mph N/A   Overcast
7:54 AM 37.0 °F 27.4 °F 26.1 °F 65% 30.19 in 10.0 mi WNW 17.3 mph - N/A   Overcast
8:54 AM 37.9 °F 29.2 °F 26.1 °F 62% 30.21 in 10.0 mi NW 15.0 mph - N/A   Overcast
9:54 AM 39.0 °F 31.8 °F 26.1 °F 60% 30.22 in 10.0 mi NW 11.5 mph - N/A   Overcast
10:54 AM 39.0 °F 30.6 °F 26.1 °F 60% 30.23 in 10.0 mi WNW 15.0 mph 20.7 mph N/A   Overcast
11:54 AM 41.0 °F 32.8 °F 27.0 °F 57% 30.23 in 10.0 mi NW 16.1 mph 24.2 mph N/A   Overcast
12:54 PM 42.1 °F 33.1 °F 26.1 °F 53% 30.22 in 10.0 mi NW 20.7 mph 29.9 mph N/A   Overcast
1:54 PM 41.0 °F 32.2 °F 25.0 °F 53% 30.20 in 10.0 mi NNW 18.4 mph 25.3 mph N/A   Overcast
2:54 PM 42.1 °F 34.9 °F 25.0 °F 51% 30.20 in 10.0 mi NNW 13.8 mph 32.2 mph N/A   Overcast
3:54 PM 43.0 °F 36.0 °F 24.1 °F 47% 30.21 in 10.0 mi NNW 13.8 mph 26.5 mph N/A   Mostly Cloudy
4:54 PM 42.1 °F 35.2 °F 23.0 °F 47% 30.22 in 10.0 mi NW 12.7 mph 28.8 mph N/A   Mostly Cloudy
5:54 PM 39.0 °F 32.3 °F 21.9 °F 50% 30.24 in 10.0 mi NNW 10.4 mph 21.9 mph N/A   Scattered Clouds
6:54 PM 37.9 °F 31.5 °F 23.0 °F 55% 30.27 in 10.0 mi NNW 9.2 mph - N/A   Mostly Cloudy
7:54 PM 37.9 °F 30.5 °F 23.0 °F 55% 30.27 in 10.0 mi NNW 11.5 mph - N/A   Scattered Clouds
8:54 PM 37.9 °F 31.5 °F 23.0 °F 55% 30.27 in 10.0 mi NW 9.2 mph - N/A   Scattered Clouds
9:54 PM 39.0 °F 31.8 °F 24.1 °F 55% 30.27 in 10.0 mi NNW 11.5 mph 21.9 mph N/A   Overcast
10:54 PM 39.0 °F 32.8 °F 24.1 °F 55% 30.27 in 10.0 mi NW 9.2 mph - N/A   Overcast
11:54 PM 39.0 °F 31.8 °F 23.0 °F 53% 30.26 in 10.0 mi NW 11.5 mph - N/A   Overcast